COSMOS 2492 (754)

Last updated on Sat Apr 11 2026 00:03:25 GMT+0000 (Coordinated Universal Time)

1 39620U 14012A 26098.88784377 -.00000023 00000+0 00000+0 0 9999 2 39620 65.3370 316.2922 0012188 330.4734 29.5029 2.13103482 93761
UTC large
Height (km)
Speed (km/s)
/
Latitude / Longitude
Inclination (degrees)
Orbital Period (minutes)
Azimuth
Elevation
Range (km)
Doppler Factor

Next 0 passes for location: London (51.5072 / 0.1276)

Sorry there are no passes over London.
COSMOS 2492 (754)